Location: Hastringsfeld
(50.9620°N, 10.4787°E)
Time: 12:04:56
(UTC+00:00)

USA 215 - Pass Details

Date: 26 September 2023
Orbit: 1098 x 1109 km, 123.0° (Epoch: 17 November)

Event Time Altitude Azimuth Distance (km) Brightness Sun altitude
Rises 01:40:39 0° 127° (SE) 3,904 6.2 -30.8°
Reaches altitude 10° 01:43:08 10° 130° (SE) 2,949 5.6 -30.6°
Enters shadow 01:48:21 58° 154° (SSE) 1,272 3.4 -30.0°
